Date String (YYYY-MM-DD hh:mm:ss) UTC,Instrument flags,absolute air pressure of the measurement (hPa),sample flow rate (lpm),inlet stack bypass flow (lpm),air temperature of the measurement (°C),ambient temperature measured by the external sensor (°C),aerosol sample conditioner tube jacket temperature (°C),OPC LED temperature (°C),internal box temperature (°C),relative humidity of the measurement (%),span deviation,mass concentration of particles derived from Lorenz-Mie calculation of OPC scattering (μg/m³),mass concentration of particles derived from Lorenz-Mie calculation of OPC scattering (μg/m³),mass concentration of particles derived from Lorenz-Mie calculation of OPC scattering (μg/m³)
DateTimeUTC,F1_M11,P_M11,Q1_M11,Q2_M11,T1_M11,T2_M11,T3_M11,T4_M11,T5_M11,U1_M11,ZSPAN_M11,X2_M11,X0_M11,X1_M11
2023-06-03 07:00:00,SystemResetWarning,0830.3,5.00,000.00,030.3,028.8,000.0,038.6,031.9,27.5,0000.0,0004.14,0008.02,0003.69
2023-06-03 07:01:00,SystemResetWarning,0830.3,5.00,000.00,030.3,028.8,000.0,038.6,031.9,27.7,-000.2,0004.23,0008.44,0003.76
2023-06-03 07:02:00,SystemResetWarning,0830.3,5.00,000.00,030.3,028.8,000.0,038.6,031.9,27.8,0000.0,0004.30,0008.53,0003.83
2023-06-03 07:03:00,SystemResetWarning,0830.3,5.00,000.00,030.3,028.8,000.0,038.6,031.9,27.9,0000.5,0004.39,0008.63,0003.92
2023-06-03 07:04:00,SystemResetWarning,0830.3,5.00,000.00,030.3,028.8,000.0,038.6,031.9,27.8,0000.6,0004.48,0008.72,0004.00
2023-06-03 07:05:00,SystemResetWarning,0830.2,5.00,000.00,030.3,028.8,000.0,038.7,031.9,27.7,0000.9,0004.56,0008.86,0004.06
2023-06-03 07:06:00,SystemResetWarning,0830.2,4.99,000.00,030.3,028.8,000.0,038.7,031.9,27.4,0002.0,0004.60,0009.27,0004.09
2023-06-03 07:07:00,SystemResetWarning,0830.2,5.00,000.00,030.3,028.8,000.0,038.7,031.9,27.4,0002.2,0004.65,0009.40,0004.11
2023-06-03 07:08:00,SystemResetWarning,0830.2,5.01,000.00,030.3,028.8,000.0,038.7,031.9,27.5,0001.7,0004.73,0009.59,0004.14
2023-06-03 07:09:00,SystemResetWarning,0830.2,5.00,000.00,030.3,028.8,000.0,038.7,031.9,27.4,0002.2,0004.79,0009.76,0004.15
2023-06-03 07:10:00,SystemResetWarning,0830.2,4.99,000.00,030.3,028.8,000.0,038.7,031.9,27.4,0002.5,0004.79,0009.52,0004.14
2023-06-03 07:11:00,SystemResetWarning,0830.2,4.99,000.00,030.3,028.8,000.0,038.7,032.0,27.5,0002.1,0004.82,0009.25,0004.11
2023-06-03 07:12:00,SystemResetWarning,0830.2,5.00,000.00,030.3,028.8,000.0,038.7,032.0,27.6,0000.0,0004.78,0009.04,0004.08
2023-06-03 07:13:00,SystemResetWarning,0830.3,5.01,000.00,030.3,028.8,000.0,038.7,032.0,27.7,0000.9,0004.77,0009.41,0004.05
2023-06-03 07:14:00,SystemResetWarning,0830.2,5.00,000.00,030.3,028.8,000.0,038.7,032.0,27.8,0000.1,0004.77,0009.62,0004.02
2023-06-03 07:15:00,SystemResetWarning,0830.2,4.99,000.00,030.4,028.8,000.0,038.7,032.0,27.9,0000.5,0004.77,0010.24,0003.99
2023-06-03 07:16:00,SystemResetWarning,0830.3,4.99,000.00,030.4,028.8,000.0,038.7,032.0,27.9,0000.0,0004.77,0010.94,0003.97
2023-06-03 07:17:00,SystemResetWarning,0830.2,4.99,000.00,030.4,028.8,000.0,038.7,032.0,27.9,0000.0,0004.80,0010.75,0003.96
2023-06-03 07:18:00,SystemResetWarning,0830.2,5.00,000.00,030.4,028.8,000.0,038.7,032.0,27.8,0000.0,0004.86,0010.88,0003.96
2023-06-03 07:19:00,SystemResetWarning,0830.3,5.00,000.00,030.4,028.8,000.0,038.7,032.0,27.8,0000.0,0004.86,0010.97,0003.95
2023-06-03 07:20:00,SystemResetWarning,0830.2,5.01,000.00,030.4,028.8,000.0,038.7,032.0,27.7,0000.1,0004.83,0010.90,0003.94
2023-06-03 07:21:00,SystemResetWarning,0830.2,5.00,000.00,030.4,028.8,000.0,038.7,032.0,27.7,0000.1,0004.81,0010.92,0003.93
2023-06-03 07:22:00,SystemResetWarning,0830.3,5.00,000.00,030.4,028.8,000.0,038.7,032.0,27.8,0000.5,0004.83,0011.25,0003.93
2023-06-03 07:23:00,SystemResetWarning,0830.2,5.00,000.00,030.4,028.9,000.0,038.8,032.0,27.7,0001.0,0004.89,0011.23,0003.94
2023-06-03 07:24:00,SystemResetWarning,0830.3,5.00,000.00,030.4,028.9,000.0,038.8,032.0,27.8,0001.0,0004.86,0011.08,0003.93
2023-06-03 07:25:00,SystemResetWarning,0830.2,5.00,000.00,030.4,028.9,000.0,038.8,032.0,27.8,0001.7,0004.85,0010.93,0003.93
2023-06-03 07:26:00,SystemResetWarning,0830.3,5.00,000.00,030.4,028.9,000.0,038.8,032.0,27.9,0002.0,0004.86,0010.41,0003.92
2023-06-03 07:27:00,SystemResetWarning,0830.3,5.00,000.00,030.4,028.9,000.0,038.8,032.0,28.0,0001.7,0004.84,0010.26,0003.92
2023-06-03 07:28:00,SystemResetWarning,0830.2,5.00,000.00,030.4,028.9,000.0,038.8,032.0,28.1,0002.2,0004.88,0010.36,0003.93
2023-06-03 07:29:00,SystemResetWarning,0830.2,5.00,000.00,030.4,028.9,000.0,038.8,032.0,28.2,0002.0,0004.86,0010.60,0003.94
2023-06-03 07:30:00,SystemResetWarning,0830.2,5.00,000.00,030.4,028.9,000.0,038.8,032.0,28.3,0002.0,0004.86,0011.17,0003.96
2023-06-03 07:31:00,SystemResetWarning,0830.3,5.00,000.00,030.4,028.9,000.0,038.8,032.0,28.4,0002.1,0004.92,0011.32,0004.00
2023-06-03 07:32:00,SystemResetWarning,0830.3,5.01,000.00,030.4,028.9,000.0,038.8,032.0,28.5,0001.9,0004.97,0011.31,0004.03
2023-06-03 07:33:00,SystemResetWarning,0830.3,5.00,000.00,030.4,028.9,000.0,038.8,032.0,28.5,0000.0,0004.98,0010.98,0004.06
2023-06-03 07:34:00,SystemResetWarning,0830.3,5.00,000.00,030.4,028.9,000.0,038.8,032.0,28.6,0000.0,0004.99,0011.01,0004.08
2023-06-03 07:35:00,SystemResetWarning,0830.2,4.99,000.00,030.4,028.9,000.0,038.8,032.0,28.6,0000.0,0005.05,0010.79,0004.13
2023-06-03 07:36:00,SystemResetWarning,0830.2,5.00,000.00,030.4,028.9,000.0,038.8,032.0,28.7,0000.0,0005.07,0011.02,0004.17
2023-06-03 07:37:00,SystemResetWarning,0830.3,4.99,000.00,030.4,028.9,000.0,038.8,032.0,28.8,0000.0,0005.08,0011.59,0004.22
2023-06-03 07:38:00,SystemResetWarning,0830.3,4.99,000.00,030.4,028.9,000.0,038.8,032.0,28.8,0000.0,0005.12,0011.53,0004.28
2023-06-03 07:39:00,SystemResetWarning,0830.3,5.00,000.00,030.4,028.9,000.0,038.8,032.0,28.8,0000.0,0005.14,0011.56,0004.34
2023-06-03 07:40:00,SystemResetWarning,0830.2,5.01,000.00,030.4,028.9,000.0,038.8,032.0,28.9,0000.0,0005.21,0011.31,0004.42
2023-06-03 07:41:00,SystemResetWarning,0830.3,5.01,000.00,030.4,028.9,000.0,038.8,032.0,29.0,0000.0,0005.27,0010.71,0004.46
2023-06-03 07:42:00,SystemResetWarning,0830.2,5.01,000.00,030.4,028.9,000.0,038.8,032.0,29.0,0000.0,0005.31,0010.66,0004.49
2023-06-03 07:43:00,SystemResetWarning,0830.2,4.99,000.00,030.4,028.9,000.0,038.8,032.0,29.0,0000.0,0005.36,0010.71,0004.53
2023-06-03 07:44:00,SystemResetWarning,0830.3,4.99,000.00,030.4,028.9,000.0,038.8,032.0,29.1,0000.0,0005.43,0010.85,0004.58
2023-06-03 07:45:00,SystemResetWarning,0830.3,4.99,000.00,030.4,028.9,000.0,038.8,032.0,29.1,0000.0,0005.45,0010.85,0004.62
2023-06-03 07:46:00,SystemResetWarning,0830.2,5.00,000.00,030.4,028.9,000.0,038.8,032.0,29.1,0000.0,0005.44,0010.74,0004.64
2023-06-03 07:47:00,SystemResetWarning,0830.3,5.01,000.00,030.4,028.9,000.0,038.8,032.0,29.1,0000.0,0005.50,0010.79,0004.67
2023-06-03 07:48:00,SystemResetWarning,0830.3,5.00,000.00,030.5,028.9,000.0,038.8,032.0,29.1,0000.0,0005.57,0010.33,0004.70
2023-06-03 07:49:00,SystemResetWarning,0830.3,5.01,000.00,030.5,028.9,000.0,038.8,032.0,29.1,0000.0,0005.60,0010.19,0004.73
2023-06-03 07:50:00,SystemResetWarning,0830.3,4.99,000.00,030.5,028.9,000.0,038.8,032.0,29.2,0000.0,0005.67,0010.38,0004.76
2023-06-03 07:51:00,SystemResetWarning,0830.3,4.99,000.00,030.5,028.9,000.0,038.9,032.1,29.2,0000.0,0005.65,0010.27,0004.75
2023-06-03 07:52:00,SystemResetWarning,0830.3,5.00,000.00,030.5,028.9,000.0,038.9,032.1,29.2,0000.0,0005.66,0010.37,0004.76
2023-06-03 07:53:00,SystemResetWarning,0830.3,5.00,000.00,030.5,028.9,000.0,038.9,032.0,29.2,0000.0,0005.69,0010.46,0004.78
2023-06-03 07:54:00,SystemResetWarning,0830.3,5.01,000.00,030.5,028.9,000.0,038.9,032.0,29.2,0000.0,0005.68,0010.42,0004.80
2023-06-03 07:55:00,SystemResetWarning,0830.3,5.01,000.00,030.5,028.9,000.0,038.9,032.1,29.3,0000.7,0005.68,0010.36,0004.83
2023-06-03 07:56:00,SystemResetWarning,0830.2,5.01,000.00,030.5,028.9,000.0,038.9,032.1,29.3,0002.8,0005.68,0010.33,0004.84
2023-06-03 07:57:00,SystemResetWarning,0830.3,5.00,000.00,030.5,028.9,000.0,038.9,032.1,29.4,0004.0,0005.70,0010.41,0004.87
2023-06-03 07:58:00,SystemResetWarning,0830.3,4.99,000.00,030.5,029.0,000.0,038.9,032.1,29.4,0003.9,0005.71,0010.24,0004.89
2023-06-03 07:59:00,SystemResetWarning,0830.2,5.00,000.00,030.5,029.0,000.0,038.9,032.1,29.4,0003.7,0005.73,0010.20,0004.90
